Regional Weather Roundup
Issued by NWS

Home | Current Version | Previous Version | Graphics & Text | Print | Product List | Glossary On
Versions: 1 2 3 4 5 6 7 8 9 10 11 12 13 14 15 16 17 18 19 20 21 22 23 24 25 26 27 28 29 30 31 32 33 34 35 36 37 38 39 40 41 42 43 44 45 46 47 48 49 50
000
ASUS43 KOAX 111702
RWRNE

WEATHER ROUNDUP FOR NEBRASKA
NATIONAL WEATHER SERVICE OMAHA NE
1200 PM CDT FRI JUL 11 2014

NOTES: SATELLITE DATA IS BEING USED TO AUGMENT CLOUD COVER ABOVE
       12000 FEET.
       "FAIR" INDICATES FEW OR NO CLOUDS BELOW 12,000 FEET WITH NO
       SIGNIFICANT WEATHER AND/OR OBSTRUCTIONS TO VISIBILITY.

  * THESE STATIONS DO NOT REPORT WEATHER SUCH AS RAIN...SNOW OR FOG.

NEZ001>004-019>022-054>056-111800-
NEBRASKA PANHANDLE

CITY           SKY/WX    TMP DP  RH WIND       PRES   REMARKS
SCOTTSBLUFF    PTSUNNY   79  62  56 CALM      30.07R
ALLIANCE       CLOUDY    78  64  61 W7        30.07R
CHADRON        CLOUDY    83  64  52 VRB3      30.02R
KIMBALL        MOSUNNY   80  59  48 NW5       30.11S
SIDNEY         MOSUNNY   82  63  52 VRB7      30.10R
$$

NEZ057>060-069>072-079>082-111800-
SOUTHWEST NEBRASKA

CITY           SKY/WX    TMP DP  RH WIND       PRES   REMARKS
NORTH PLATTE   CLOUDY    76  69  79 CALM      30.02F
IMPERIAL       MOSUNNY   84  64  50 NE3       30.02R
LEXINGTON      CLOUDY    80  70  73 NW3       30.00R
MCCOOK         MOSUNNY   85  66  53 SE8       29.98R
OGALLALA       PTSUNNY   75  66  73 CALM      30.04R
$$

NEZ005>010-023>029-035>040-094-111800-
NORTH CENTRAL NEBRASKA

CITY           SKY/WX    TMP DP  RH WIND       PRES   REMARKS
VALENTINE      MOSUNNY   86  63  45 E5        29.98S
AINSWORTH      MOSUNNY   80  63  56 CALM      30.00R
BROKEN BOW     PTSUNNY   75  70  84 CALM      30.00R
O`NEILL        MOSUNNY   81  68  65 SW12      29.97R
ORD            CLOUDY    76  70  82 SW9       29.99S
THEDFORD       MOSUNNY   85  65  50 NW6       30.01F
$$

NEZ041-046>049-061>064-073>077-083>087-111800-
SOUTH CENTRAL NEBRASKA

CITY           SKY/WX    TMP DP  RH WIND       PRES   REMARKS
GRAND ISLAND   CLOUDY    76  69  79 S8        29.99R
AURORA         PTSUNNY   80  74  81 S12       29.97F
HASTINGS       PTSUNNY   80  67  64 S13       29.98S
HEBRON         MOSUNNY   83  70  64 S8        29.98F
HOLDREGE       CLOUDY    80  68  65 S8        29.98R
KEARNEY *      CLOUDY    79  70  73 N7        30.00R
YORK           PTSUNNY   77  72  83 S8        29.98F
$$

NEZ011>018-030>034-042>045-111800-
NORTHEAST NEBRASKA

CITY           SKY/WX    TMP DP  RH WIND       PRES   REMARKS
NORFOLK        CLOUDY    74  68  81 S13       29.96F
ALBION         CLOUDY    73  67  83 SE9       29.94F
BLAIR          CLOUDY    73  66  79 S13       29.98R
FREMONT        CLOUDY    75  68  79 S5        30.00R
WAYNE          CLOUDY    76  70  83 S13       29.97S
$$

NEZ050>053-065>068-078-088>093-111800-
SOUTHEAST NEBRASKA

CITY           SKY/WX    TMP DP  RH WIND       PRES   REMARKS
LINCOLN        CLOUDY    80  70  71 S8        29.99R
OMAHA EPPLEY   CLOUDY    75  67  76 S17       29.97F
BEATRICE       PTSUNNY   79  69  71 S13       29.98F
FALLS CITY     PTSUNNY   83  70  64 S13       30.00F
NEBRASKA CITY  PTSUNNY   77  69  76 S10       29.99F
PLATTSMOUTH    CLOUDY    75  68  77 SE10G17   29.99F
$$

NEZ044-045-051>053-067-111800-
OMAHA AREA

CITY           SKY/WX    TMP DP  RH WIND       PRES   REMARKS
OMAHA EPPLEY   CLOUDY    75  67  76 S17       29.97F
BLAIR          CLOUDY    73  66  79 S13       29.98R
FREMONT        CLOUDY    75  68  79 S5        30.00R
MILLARD        CLOUDY    75  69  80 SE12      29.97F
OFFUTT AFB     CLOUDY    76  72  88 SE13      29.97F
PLATTSMOUTH    CLOUDY    75  68  77 SE10G17   29.99F
WAHOO          PTSUNNY   77  68  74 S9        29.99R
$$


USA.gov is the U.S. government's official web portal to all federal, state and local government web resources and services.